Home   Weather   Vincennes   Past weeks

Flag for USA Past Weather in Vincennes, Indiana, USA — Yesterday and Last 2 Weeks

Now
72 °F

Clear.


Feels Like: 70 °F
Forecast: 66 / 85 °F
Wind: 6 mph from Northeast

Location: Lawrenceville-Vincennes International Airport

Current Time: Jul 25, 2017 at 12:43:31 am

Latest Report: Jul 24, 2017 at 11:53 pm


Visibility: 10 mi

Pressure: 30.03 "Hg

Humidity: 87%

Dew Point: 68 °F

Location of VincennesLocation

Past Weather in Vincennes — Graph

°F

Vincennes Temperature Yesterday

Maximum temperature yesterday: 86 °F (at 4:53 pm)
Minimum temperature yesterday: 72 °F (at 3:53 am)
Average temperature yesterday: 79 °F

High & Low Weather Summary for the Past Weeks

 TemperatureHumidityPressure
High97 °F (Jul 22, 3:53 pm)100% (Jul 13, 9:15 pm)30.16 "Hg (Jul 13, 9:15 pm)
Low61 °F (Jul 16, 7:02 am)45% (Jul 18, 5:53 pm)29.77 "Hg (Jul 22, 7:53 pm)
Average79 °F77%29.98 "Hg
* Reported Jul 9 10:53 pm — Jul 24 10:53 pm, Vincennes. Weather by CustomWeather, © 2017

Note: Actual official high and low records may vary slightly from our data, if they occured in-between our weather recording intervals... More about our weather records

Advertising

Vincennes Weather History for the Previous 24 Hours

Scroll right to see more
 ConditionsComfort  
Time TempWeatherWind HumidityBarometerVisibility
10:53 pm
Mon, Jul 24
74 °FClear.6 mph85%30.02 "Hg10 mi
9:53 pm75 °FClear.6 mph82%30.00 "Hg10 mi
8:53 pm79 °FSunny.8 mph72%29.98 "Hg10 mi
7:53 pm83 °FSunny.8 mph61%29.96 "Hg10 mi
6:53 pm85 °FSunny.8 mph57%29.95 "Hg10 mi
5:53 pm86 °FPassing clouds.7 mph53%29.95 "Hg10 mi
4:53 pm86 °FPassing clouds.6 mph55%29.96 "Hg10 mi
3:53 pm85 °FSunny.10 mph59%29.96 "Hg10 mi
2:53 pm85 °FScattered clouds.6 mph59%29.95 "Hg10 mi
1:53 pm85 °FPassing clouds.7 mph61%29.95 "Hg10 mi
12:53 pm84 °FSunny.6 mph65%29.95 "Hg10 mi
11:53 am82 °FSunny.No wind70%29.94 "Hg10 mi
10:53 am80 °FSunny.6 mph74%29.94 "Hg10 mi
9:53 am78 °FSunny.6 mph79%29.93 "Hg10 mi
8:53 am76 °FSunny.7 mph82%29.92 "Hg10 mi
7:53 am73 °FSunny.5 mph94%29.91 "Hg10 mi
6:53 am73 °FPartly sunny.3 mph94%29.90 "Hg9 mi
5:53 am72 °FPassing clouds.No wind93%29.88 "Hg10 mi
4:53 am72 °FPassing clouds.3 mph93%29.87 "Hg10 mi
3:53 am72 °FClear.3 mph97%29.86 "Hg10 mi
2:53 am73 °FClear.3 mph94%29.86 "Hg10 mi
1:53 am74 °FClear.6 mph91%29.86 "Hg10 mi
12:53 am76 °FClear.7 mph82%29.84 "Hg10 mi
Weather by CustomWeather, © 2017

See weather overviewHow to use our weather pages